AirNav   $300 off a Bose A20 aviation headset
 
 1335 users online  

KCGS College Park Airport
College Park, Maryland, USA

GOING TO COLLEGE PARK?


FAA INFORMATION EFFECTIVE 28 FEBRUARY 2019

Location

FAA Identifier: CGS
Lat/Long: 38-58-50.1000N / 076-55-20.3000W
38-58.835000N / 076-55.338333W
38.9805833 / -76.9223056
(estimated)
Elevation: 48.4 ft. / 14.8 m (surveyed)
Variation: 11W (2000)
From city: 1 mile E of COLLEGE PARK, MD
Time zone: UTC -5 (UTC -4 during Daylight Saving Time)
Zip code: 20740

Airport Operations

Airport use: Open to the public
Activation date: 04/1940
Control tower: no
ARTCC: WASHINGTON CENTER
FSS: LEESBURG FLIGHT SERVICE STATION
NOTAMs facility: CGS (NOTAM-D service available)
Attendance: 0700-2200,
Pattern altitude: 1048.4 ft. MSL
Wind indicator: lighted
Segmented circle: yes
Lights: ACTVT MIRL RY 15/33; APAP RY 15 - CTAF 5 CLICKS.
Beacon: white-green (lighted land airport)
Operates sunset to sunrise.

Airport Communications

CTAF/UNICOM: 122.975
WX AWOS-3: 121.225 (301-864-5497)
POTOMAC APPROACH: 125.65(DC FRZ) 124.7
POTOMAC DEPARTURE: 125.65(DC FRZ) 124.7
IRONS STAR: 126.4
WX ASOS at DCA (9 nm SW): 132.65 (703-412-8140)
WX AWOS-3 at FME (10 nm NE): 123.925
WX AWOS-3PT at GAI (16 nm NW): 128.275 (301-977-2971)
WX ASOS at BWI (17 nm NE): PHONE 410-691-1278

Nearby radio navigation aids

VOR radial/distance  VOR name  Freq  Var
DCAr045/9.0WASHINGTON VOR/DME111.0009W
ADWr356/10.7ANDREWS VORTAC113.1010W
BALr238/16.7BALTIMORE VORTAC115.1011W
OTTr343/18.5NOTTINGHAM VORTAC113.7010W
AMLr092/25.5ARMEL VOR/DME113.5008W
EMIr183/31.0WESTMINSTER VORTAC117.9008W
FDKr149/(33.4)FREDERICK VOR109.0008W

 
NDB name  Hdg/Dist  Freq  Var  ID
GEORGETOWN081/9.932309WGTN --. - -.
OXONN032/13.833211WDCA -.. -.-. .-
ELLICOTT211/19.637111WFND ..-. -. -..
DAVEE034/21.122309WDAA -.. .- .-

Airport Services

Fuel available: 100LL JET-A
Parking: tiedowns
Airframe service: NONE
Powerplant service: NONE
Bottled oxygen: NONE
Bulk oxygen: NONE

Runway Information

Runway 15/33

Dimensions: 2607 x 60 ft. / 795 x 18 m
Surface: asphalt, in fair condition
Runway edge lights: medium intensity
RUNWAY 15  RUNWAY 33
Latitude: 38-58.995650N38-58.674748N
Longitude: 076-55.520488W076-55.154692W
Elevation: 48.4 ft.39.1 ft.
Gradient: 0.4% DOWN0.4% UP
Traffic pattern: leftleft
Runway heading: 149 magnetic, 138 true329 magnetic, 318 true
Displaced threshold: 416 ft.201 ft.
Markings: nonprecision, in good conditionnonprecision, in good condition
Runway end identifier lights: nono
Touchdown point: yes, no lightsyes, no lights
Obstructions: 57 ft. trees, 619 ft. from runway, 37 ft. left of centerline, 7:1 slope to clear
APCH SLOPE AT CL 20:1 FM DSPLCD THLD AND CENTERLINE.
69 ft. trees, 1435 ft. from runway, 17:1 slope to clear
+15 FT FENCE 87 FT R AT THR; -6 FT DITCH 65 FT L AT THR.

Airport Ownership and Management from official FAA records

Ownership: Publicly-owned
Owner: MNCPPC
GOVERNOR ODEN BOWIE DR
UPPER MARLBORO, MD 20772
Phone 301-952-3261
MARYLAND NATIONAL CAPITAL PARK & PLANNING CMSN.
Manager: LEE SOMMER
1909 CORPORAL FRANK SCOTT DRIVE
COLLEGE PARK, MD 20740
Phone 301-864-5844

Airport Operational Statistics

Aircraft based on the field: 30
Single engine airplanes: 28
Helicopters: 2
    
Aircraft operations: avg 62/week *
66% local general aviation
29% transient general aviation
4% military
1% air taxi
* for 12-month period ending 06 September 2018

Additional Remarks

NO TKOFS 2200-0700; LNDG ONLY.
TSNT PRKG: FIRST 4 HRS FREE; FEE AFT, WAIVED W/MIN FUEL PURCHASE; OVNGT FEE.
HEL RAMP FEE; WAIVED IF UNDER 3500 LBS OR MIN FUEL PURCHASE.
ACFT HANDLING FEE IF RELOCATION TO/FROM FUEL AREA RQRD BY ARPT PSNL.
BLDG 0.1 NM S OF ARPT 23 FT AGL LGTD.
NO ACFT OVR 12500 LBS MFR GWT; HELS ONLY WITH 24 HR PPR - CALL AMGR 301-864-5844.
NOISE ABATEMENT PROCEDURES IN EFFECT CTC AMGR 301-864-5844.
AER 15 HEAVY SMOKE & FIREFIGHTING TRAINING OPNS INTERMITTENTLY IN PROGRESS.
NO STUDENT TGL OR SOLO OPNS PERMITTED.
DEER AND OTHER WILDLIFE ON & INVOF ARPT.
COMPLIANCE WITH 14CFR SECTION 93.335 IS REQUIRED BEFORE PILOTS MAY OPERATE TO/FROM THIS AIRPORT.
FOR CD CTC POTOMAC APCH AT 866-599-3874.

Instrument Procedures

NOTE: All procedures below are presented as PDF files. If you need a reader for these files, you should download the free Adobe Reader.

NOT FOR NAVIGATION. Please procure official charts for flight.
FAA instrument procedures published for use from 28 February 2019 at 0901Z to 28 March 2019 at 0900Z.

 
IAPs - Instrument Approach Procedures
RNAV (GPS)-A   download (131KB)
RNAV (GPS)-B   download (124KB)
NOTE: Special Take-Off Minimums/Departure Procedures apply   download (140KB)

Other nearby airports with instrument procedures:

W00 - Freeway Airport (7 nm E)
KDCA - Ronald Reagan Washington National Airport (9 nm SW)
KFME - Tipton Airport (10 nm NE)
KADW - Joint Base Andrews (11 nm S)
W32 - Washington Executive Airport/Hyde Field (14 nm S)
KVKX - Potomac Airfield (14 nm S)
KGAI - Montgomery County Airpark (16 nm NW)
KBWI - Baltimore/Washington International Thurgood Marshall Airport (17 nm NE)
KANP - Lee Airport (17 nm E)
W50 - Davis Airport (19 nm NW)
 
Loc | Ops | Rwys | IFR | FBO | Links
Com | Nav | Svcs | Stats | Notes
Area around KCGS (College Park Airport)
 
Road maps at: MapQuest Bing Google
 
Aerial photo
WARNING: Photo may not be current or correct
Aerial photo of KCGS (College Park Airport)
Photo taken 19-Oct-2016
looking north.

Do you have a better or more recent aerial photo of College Park Airport that you would like to share? If so, please send us your photo.

 
Sectional chart

 
Airport distance calculator
Flying to College Park Airport? Find the distance to fly.

From to KCGS

Sunrise and sunset
Times for 22-Mar-2019
 Local
(UTC-4)
 Zulu
(UTC)
Morning civil twilight06:4210:42
Sunrise07:0911:09
Sunset19:2023:20
Evening civil twilight19:4723:47

Current date and time
Zulu (UTC)  22-Mar-2019 19:31:42
Local (UTC-4)  22-Mar-2019 15:31:42
 
METAR
KCGS 221904Z AUTO 29013G19KT 10SM SCT050 OVC065 10/M01 A2960 RMK AO1 T00961011
KDCA 
9nm SW 
221910Z 28012KT 10SM -RA FEW045 BKN055 OVC080 11/M01 A2961 RMK AO2 RAB10 P0000 T01111006
KFME 
10nm NE 
221903Z AUTO 28012G24KT 10SM SCT060 BKN070 BKN075 10/00 A2962 RMK AO1
KADW 
10nm S 
221856Z AUTO 30014G23KT 10SM FEW050 FEW070 FEW085 11/00 A2960 RMK AO2 PK WND 28032/19 SLP031 T01061005 $
KVKX 
14nm S 
SuperAWOS
221855Z AUTO 32008KT 240V040 10SM 11/01 A2961
KBWI 
16nm NE 
221854Z 29014KT 10SM BKN050 BKN090 10/M01 A2958 RMK AO2 PK WND 30028/1802 SLP017 VIRGA W-NW T01001006
KGAI 
16nm NW 
221856Z AUTO 30019G24KT 10SM -RA OVC047 07/01 A2961 RMK AO2 PK WND 30029/1843 RAB43 SLP057 P0000 T00670011
KANP 
17nm E 
SuperAWOS
221855Z AUTO 30018G22KT 260V340 10SM 12/M01 A2958
KDAA 
20nm SW 
221915Z AUTO 29013G25KT 10SM -RA FEW055 11/M01 A2961 RMK AO2 RAB15 SLP030 $
TAF
KDCA 
9nm SW 
221724Z 2218/2324 28020G36KT P6SM BKN045 FM222100 29022G37KT P6SM -SHRA BKN045 FM230000 30021G37KT P6SM SCT045 FM230800 30016G29KT P6SM SKC FM232200 30014G22KT P6SM SKC
KADW 
10nm S 
221700Z 2217/2323 32020G35KT 9999 OVC050 620503 510005 QNH2958INS BECMG 2219/2220 30025G35KT 9000 -SHRA BKN040 OVC055 610409 510005 QNH2961INS BECMG 2303/2304 30015G25KT 9999 NSW FEW100 QNH2980INS BECMG 2313/2314 30020G30KT 9999 SKC 510005 QNH3004INS BECMG 2322/2323 30009KT 9999 SKC QNH3012INS TX11/2218Z TNM01/2312Z
KBWI 
16nm NE 
221724Z 2218/2324 28019G32KT P6SM BKN045 FM222100 29022G38KT P6SM -SHRA BKN045 FM230000 30023G37KT P6SM SCT045 FM230800 30018G30KT P6SM FEW250 FM231100 30015G22KT P6SM FEW250 FM232300 30009KT P6SM SKC
KDAA 
20nm SW 
221700Z 2217/2323 30015G25KT 9999 OVC050 620503 QNH2960INS TEMPO 2217/2304 32025G35KT SCT100 510005 BECMG 2303/2304 30012G20KT 9999 FEW100 QNH2988INS BECMG 2313/2314 30020G30KT 9999 SKC 510005 QNH3012INS BECMG 2322/2323 30009KT 9999 SKC QNH3020INS TX12/2218Z TN00/2309Z
NOTAMs
Click for the latest NOTAMs
NOTAMs are issued by the DoD/FAA and will open in a separate window not controlled by AirNav.

 

 
 

FBO, Fuel Providers, and Aircraft Ground Support

  
 Business Name 
 
 Contact 
 
 Services / Description 
 
Fuel Prices
 
Comments
  
College Park Airport 301-864-5844
no information available

If you are affiliated with College Park Airport and would like to show here your services, contact info, web link, logo, and more, click here
100LL Jet A
FS --- $4.58 
PS $4.99 --- 
 Updated 25-Feb-2019
 
   8 read write
FS=Full service
PS=Pump service
Update Fuel Prices
 

Getting Around: Taxi, Limo, Rental Cars, Mass Transit

  
 Business Name 
 
 Contact 
 
Services / Description
 
Comments
  
Metrorail [web site]
no information available

If you are affiliated with Metrorail and would like to show here your services, contact info, web link, logo, and more, click here
 
   3 read write
 

Things to do: Attractions on or near the airport

  
 Business Name 
 
 Contact 
 
 Services / Description 
 
Distance
 
Comments
  
College Park Aviation Museum 301-864-6029
no information available

If you are affiliated with College Park Aviation Museum and would like to show here your services, contact info, web link, logo, and more, click here
on airport  
   2 read write
 

Would you like to see your business listed on this page?

 If your business provides an interesting product or service to pilots, flight crews, aircraft, or users of the College Park Airport, you should consider listing it here.  To start the listing process, click on the button below
 
Add a business
 

Other Pages about College Park Airport

www.collegeparkairport.org
www.pgparks.com/...
 
Update a link
 
Copyright © AirNav, LLC. All rights reserved. Privacy Policy  Contact